Year,Month,Day,Hour,Minute,Value (Times are PST for temperature in C)
2012,08,04,08,36,20.70
2012,08,04,08,37,20.70
2012,08,04,08,38,20.70
2012,08,04,08,39,20.70
2012,08,04,08,40,20.80
2012,08,04,08,41,20.80
2012,08,04,08,42,20.80
2012,08,04,08,43,20.80
2012,08,04,08,44,20.90
2012,08,04,08,45,20.90
2012,08,04,08,46,21.00
2012,08,04,08,47,21.00
2012,08,04,08,48,21.10
2012,08,04,08,49,21.10
2012,08,04,08,50,21.10
2012,08,04,08,51,21.00
2012,08,04,08,52,21.00
2012,08,04,08,53,21.00
2012,08,04,08,54,21.10
2012,08,04,08,55,21.10
2012,08,04,08,56,21.20
2012,08,04,08,57,21.20
2012,08,04,08,58,21.20
2012,08,04,08,59,21.30
2012,08,04,09,00,21.30
2012,08,04,09,01,21.40
2012,08,04,09,02,21.40
2012,08,04,09,03,21.40
2012,08,04,09,04,21.50
2012,08,04,09,05,21.50
2012,08,04,09,06,21.50
2012,08,04,09,07,21.50
2012,08,04,09,08,21.50
2012,08,04,09,09,21.40
2012,08,04,09,10,21.40
2012,08,04,09,11,21.40
2012,08,04,09,12,21.50
2012,08,04,09,13,21.50
2012,08,04,09,14,21.60
2012,08,04,09,15,21.60
2012,08,04,09,16,21.60
2012,08,04,09,17,21.60
2012,08,04,09,18,21.60
2012,08,04,09,19,21.60
2012,08,04,09,20,21.60
2012,08,04,09,21,21.60
2012,08,04,09,22,21.70
2012,08,04,09,23,21.70
2012,08,04,09,24,21.70
2012,08,04,09,25,21.70
2012,08,04,09,26,21.70
2012,08,04,09,27,21.70
2012,08,04,09,28,21.70
2012,08,04,09,29,21.60
2012,08,04,09,30,21.70
2012,08,04,09,31,21.70
2012,08,04,09,32,21.70
2012,08,04,09,33,21.70
2012,08,04,09,34,21.70
2012,08,04,09,35,21.60
2012,08,04,09,36,21.60
2012,08,04,09,37,21.60
2012,08,04,09,38,21.60
2012,08,04,09,39,21.60
2012,08,04,09,40,21.50
2012,08,04,09,41,21.40
2012,08,04,09,42,21.30
2012,08,04,09,43,21.30
2012,08,04,09,44,21.30
2012,08,04,09,45,21.30
2012,08,04,09,46,21.20
2012,08,04,09,47,21.20
2012,08,04,09,48,21.30
2012,08,04,09,49,21.30
2012,08,04,09,50,21.30
2012,08,04,09,51,21.40
2012,08,04,09,52,21.40
2012,08,04,09,53,21.40
2012,08,04,09,54,21.40
2012,08,04,09,55,21.40
2012,08,04,09,56,21.40
2012,08,04,09,57,21.30
2012,08,04,09,58,21.30
2012,08,04,09,59,21.20
2012,08,04,10,00,21.20
2012,08,04,10,01,21.10
2012,08,04,10,02,21.00
2012,08,04,10,03,20.90
2012,08,04,10,04,20.80
2012,08,04,10,05,20.80
2012,08,04,10,06,20.80
2012,08,04,10,07,20.80
2012,08,04,10,08,20.90
2012,08,04,10,09,21.00
2012,08,04,10,10,21.10
2012,08,04,10,11,21.20
2012,08,04,10,12,21.20
2012,08,04,10,13,21.30
2012,08,04,10,14,21.40
2012,08,04,10,15,21.40
2012,08,04,10,16,21.50
2012,08,04,10,17,21.60
2012,08,04,10,18,21.70
2012,08,04,10,19,21.70
2012,08,04,10,20,21.80
2012,08,04,10,21,21.90
2012,08,04,10,22,21.90
2012,08,04,10,23,22.00
2012,08,04,10,24,22.00
2012,08,04,10,25,22.10
2012,08,04,10,26,22.20
2012,08,04,10,27,22.30
2012,08,04,10,28,22.40
2012,08,04,10,29,22.40
2012,08,04,10,30,22.50
2012,08,04,10,31,22.50
2012,08,04,10,32,22.50
2012,08,04,10,33,22.40
2012,08,04,10,34,22.40
2012,08,04,10,35,22.30
2012,08,04,10,36,22.30
2012,08,04,10,37,22.30
2012,08,04,10,38,22.40
2012,08,04,10,39,22.40
2012,08,04,10,40,22.50
2012,08,04,10,41,22.60
2012,08,04,10,42,22.70
2012,08,04,10,43,22.70
2012,08,04,10,44,22.80
2012,08,04,10,45,22.80
2012,08,04,10,46,22.90
2012,08,04,10,47,22.90
2012,08,04,10,48,23.00
2012,08,04,10,49,23.00
2012,08,04,10,50,23.00
2012,08,04,10,51,23.00
2012,08,04,10,52,23.00
2012,08,04,10,53,23.10
2012,08,04,10,54,23.10
2012,08,04,10,55,23.10
2012,08,04,10,56,23.10
2012,08,04,10,57,23.10
2012,08,04,10,58,23.10
2012,08,04,10,59,23.10
2012,08,04,11,00,23.20
2012,08,04,11,01,23.20
2012,08,04,11,02,23.30
2012,08,04,11,03,23.40
2012,08,04,11,04,23.50
2012,08,04,11,05,23.60
2012,08,04,11,06,23.70
2012,08,04,11,07,23.70
2012,08,04,11,08,23.70
2012,08,04,11,09,23.70
2012,08,04,11,10,23.70
2012,08,04,11,11,23.60
2012,08,04,11,12,23.50
2012,08,04,11,13,23.50
2012,08,04,11,14,23.50
2012,08,04,11,15,23.50
2012,08,04,11,16,23.60
2012,08,04,11,17,23.70
2012,08,04,11,18,23.80
2012,08,04,11,19,23.90
2012,08,04,11,20,24.00
2012,08,04,11,21,24.10
2012,08,04,11,22,24.20
2012,08,04,11,23,24.30
2012,08,04,11,24,24.20
2012,08,04,11,25,24.10
2012,08,04,11,26,24.10
2012,08,04,11,27,24.00
2012,08,04,11,28,24.00
2012,08,04,11,29,23.90
2012,08,04,11,30,23.90
2012,08,04,11,31,24.00
2012,08,04,11,32,24.10
2012,08,04,11,33,24.10
2012,08,04,11,34,24.20
2012,08,04,11,35,24.20
2012,08,04,11,36,24.20
2012,08,04,11,37,24.20
2012,08,04,11,38,24.30
2012,08,04,11,39,24.40
2012,08,04,11,40,24.40
2012,08,04,11,41,24.40
2012,08,04,11,42,24.50
2012,08,04,11,43,24.60
2012,08,04,11,44,24.60
2012,08,04,11,45,24.60
2012,08,04,11,46,24.60
2012,08,04,11,47,24.60
2012,08,04,11,48,24.60
2012,08,04,11,49,24.70
2012,08,04,11,50,24.80
2012,08,04,11,51,24.80
2012,08,04,11,52,24.80
2012,08,04,11,53,24.80
2012,08,04,11,54,24.80
2012,08,04,11,55,24.70
2012,08,04,11,56,24.60
2012,08,04,11,57,24.60
2012,08,04,11,58,24.60
2012,08,04,11,59,24.60
2012,08,04,12,00,24.60
2012,08,04,12,01,24.60
2012,08,04,12,02,24.60
2012,08,04,12,03,24.60
2012,08,04,12,04,24.60
2012,08,04,12,05,24.70
2012,08,04,12,06,24.70
2012,08,04,12,07,24.70
2012,08,04,12,08,24.60
2012,08,04,12,09,24.60
2012,08,04,12,10,24.60
2012,08,04,12,11,24.70
2012,08,04,12,12,24.70
2012,08,04,12,13,24.70
2012,08,04,12,14,24.80
2012,08,04,12,15,24.80
2012,08,04,12,16,24.80
2012,08,04,12,17,24.90
2012,08,04,12,18,25.00
2012,08,04,12,19,25.10
2012,08,04,12,20,25.20
2012,08,04,12,21,25.10
2012,08,04,12,22,25.10
2012,08,04,12,23,25.10
2012,08,04,12,24,25.10
2012,08,04,12,25,25.20
2012,08,04,12,26,25.30
2012,08,04,12,27,25.40
2012,08,04,12,28,25.40
2012,08,04,12,29,25.50
2012,08,04,12,30,25.50
2012,08,04,12,31,25.40
2012,08,04,12,32,25.10
2012,08,04,12,33,25.00
2012,08,04,12,34,25.00
2012,08,04,12,35,25.00
2012,08,04,12,36,25.00
2012,08,04,12,37,25.00
2012,08,04,12,38,25.10
2012,08,04,12,39,25.10
2012,08,04,12,40,25.10
2012,08,04,12,41,25.20
2012,08,04,12,42,25.20
2012,08,04,12,43,25.20
2012,08,04,12,44,25.20
2012,08,04,12,45,25.20
2012,08,04,12,46,25.30
2012,08,04,12,47,25.30
2012,08,04,12,48,25.40
2012,08,04,12,49,25.40
2012,08,04,12,50,25.50
2012,08,04,12,51,25.60
2012,08,04,12,52,25.60
2012,08,04,12,53,25.70
2012,08,04,12,54,25.70
2012,08,04,12,55,25.80
2012,08,04,12,56,25.90
2012,08,04,12,57,25.90
2012,08,04,12,58,26.00
2012,08,04,12,59,26.00
2012,08,04,13,00,26.00
2012,08,04,13,01,25.90
2012,08,04,13,02,25.90
2012,08,04,13,03,25.90
2012,08,04,13,04,25.90
2012,08,04,13,05,25.90
2012,08,04,13,06,25.90
2012,08,04,13,07,26.00
2012,08,04,13,08,26.10
2012,08,04,13,09,26.10
2012,08,04,13,10,26.10
2012,08,04,13,11,26.10
2012,08,04,13,12,26.10
2012,08,04,13,13,26.10
2012,08,04,13,14,26.20
2012,08,04,13,15,26.30
2012,08,04,13,16,26.30
2012,08,04,13,17,26.20
2012,08,04,13,18,26.20
2012,08,04,13,19,26.10
2012,08,04,13,20,26.10
2012,08,04,13,21,26.00
2012,08,04,13,22,26.00
2012,08,04,13,23,26.00
2012,08,04,13,24,25.90
2012,08,04,13,25,25.90
2012,08,04,13,26,25.90
2012,08,04,13,27,25.90
2012,08,04,13,28,26.00
2012,08,04,13,29,26.10
2012,08,04,13,30,26.20
2012,08,04,13,31,26.30
2012,08,04,13,32,26.30
2012,08,04,13,33,26.30
2012,08,04,13,34,26.30
2012,08,04,13,35,26.30
2012,08,04,13,36,26.30
2012,08,04,13,37,26.30
2012,08,04,13,38,26.20
2012,08,04,13,39,26.20
2012,08,04,13,40,26.20
2012,08,04,13,41,26.20
2012,08,04,13,42,26.10
2012,08,04,13,43,26.10
2012,08,04,13,44,26.20
2012,08,04,13,45,26.30
2012,08,04,13,46,26.30
2012,08,04,13,47,26.40
2012,08,04,13,48,26.50
2012,08,04,13,49,26.60
2012,08,04,13,50,26.70
2012,08,04,13,51,26.80
2012,08,04,13,52,26.80
2012,08,04,13,53,26.90
2012,08,04,13,54,26.90
2012,08,04,13,55,27.00
2012,08,04,13,56,26.90
2012,08,04,13,57,27.00
2012,08,04,13,58,27.00
2012,08,04,13,59,27.10
2012,08,04,14,00,27.00
2012,08,04,14,01,27.00
2012,08,04,14,02,27.10
2012,08,04,14,03,27.00
2012,08,04,14,04,27.00
2012,08,04,14,05,26.90
2012,08,04,14,06,26.90
2012,08,04,14,07,26.90
2012,08,04,14,08,27.00
2012,08,04,14,09,27.00
2012,08,04,14,10,27.10
2012,08,04,14,11,27.20
2012,08,04,14,12,27.10
2012,08,04,14,13,27.10
2012,08,04,14,14,27.00
2012,08,04,14,15,27.00
2012,08,04,14,16,27.00
2012,08,04,14,17,27.10
2012,08,04,14,18,27.10
2012,08,04,14,19,27.10
2012,08,04,14,20,27.10
2012,08,04,14,21,27.10
2012,08,04,14,22,27.20
2012,08,04,14,23,27.20
2012,08,04,14,24,27.20
2012,08,04,14,25,27.10
2012,08,04,14,26,27.10
2012,08,04,14,27,27.10
2012,08,04,14,28,27.10
2012,08,04,14,29,27.10
2012,08,04,14,30,27.20
2012,08,04,14,31,27.30
2012,08,04,14,32,27.30
2012,08,04,14,33,27.40
2012,08,04,14,34,27.40
2012,08,04,14,35,27.40
2012,08,04,14,36,27.50
2012,08,04,14,37,27.60
2012,08,04,14,38,27.60
2012,08,04,14,39,27.70
2012,08,04,14,40,27.70
2012,08,04,14,41,27.80
2012,08,04,14,42,27.80
2012,08,04,14,43,27.80
2012,08,04,14,44,27.80
2012,08,04,14,45,27.80
2012,08,04,14,46,27.80
2012,08,04,14,47,27.80
2012,08,04,14,48,27.80
2012,08,04,14,49,27.90
2012,08,04,14,50,27.90
2012,08,04,14,51,28.00
2012,08,04,14,52,28.00
2012,08,04,14,53,28.00
2012,08,04,14,54,27.90
2012,08,04,14,55,27.90
2012,08,04,14,56,27.90
2012,08,04,14,57,27.90
2012,08,04,14,58,27.90
2012,08,04,14,59,27.90
2012,08,04,15,00,27.90
2012,08,04,15,01,27.90
2012,08,04,15,02,28.00
2012,08,04,15,03,28.10
2012,08,04,15,04,28.00
2012,08,04,15,05,28.00
2012,08,04,15,06,28.00
2012,08,04,15,07,28.00
2012,08,04,15,08,28.00
2012,08,04,15,09,27.90
2012,08,04,15,10,27.80
2012,08,04,15,11,27.80
2012,08,04,15,12,27.90
2012,08,04,15,13,27.90
2012,08,04,15,14,27.90
2012,08,04,15,15,27.70
2012,08,04,15,16,27.70
2012,08,04,15,17,27.60
2012,08,04,15,18,27.60
2012,08,04,15,19,27.40
2012,08,04,15,20,27.40
2012,08,04,15,21,27.40
2012,08,04,15,22,27.40
2012,08,04,15,23,27.40
2012,08,04,15,24,27.50
2012,08,04,15,25,27.50
2012,08,04,15,26,27.60
2012,08,04,15,27,27.60
2012,08,04,15,28,27.70
2012,08,04,15,29,27.70
2012,08,04,15,30,27.70
2012,08,04,15,31,27.80
2012,08,04,15,32,27.80
2012,08,04,15,33,27.80
2012,08,04,15,34,27.80
2012,08,04,15,35,27.80
2012,08,04,15,36,27.80
2012,08,04,15,37,27.90
2012,08,04,15,38,27.90
2012,08,04,15,39,27.90
2012,08,04,15,40,27.90
2012,08,04,15,41,27.90
2012,08,04,15,42,27.90
2012,08,04,15,43,28.00
2012,08,04,15,44,28.00
2012,08,04,15,45,28.10
2012,08,04,15,46,28.20
2012,08,04,15,47,28.20
2012,08,04,15,48,28.30
2012,08,04,15,49,28.30
2012,08,04,15,50,28.40
2012,08,04,15,51,28.40
2012,08,04,15,52,28.40
2012,08,04,15,53,28.40
2012,08,04,15,54,28.40
2012,08,04,15,55,28.40
2012,08,04,15,56,28.40
2012,08,04,15,57,28.30
2012,08,04,15,58,28.20
2012,08,04,15,59,28.20
2012,08,04,16,00,28.20
2012,08,04,16,01,28.20
2012,08,04,16,02,28.20
2012,08,04,16,03,28.20
2012,08,04,16,04,28.20
2012,08,04,16,05,28.30
2012,08,04,16,06,28.40
2012,08,04,16,07,28.50
2012,08,04,16,08,28.60
2012,08,04,16,09,28.60
2012,08,04,16,10,28.60
2012,08,04,16,11,28.60
2012,08,04,16,12,28.70
2012,08,04,16,13,28.70
2012,08,04,16,14,28.80
2012,08,04,16,15,28.80
2012,08,04,16,16,28.80
2012,08,04,16,17,28.80
2012,08,04,16,18,28.80
2012,08,04,16,19,28.80
2012,08,04,16,20,28.90
2012,08,04,16,21,28.90
2012,08,04,16,22,28.90
2012,08,04,16,23,28.90
2012,08,04,16,24,28.90
2012,08,04,16,25,28.80
2012,08,04,16,26,28.80
2012,08,04,16,27,28.70
2012,08,04,16,28,28.70
2012,08,04,16,29,28.70
2012,08,04,16,30,28.70
2012,08,04,16,31,28.70
2012,08,04,16,32,28.70
2012,08,04,16,33,28.70
2012,08,04,16,34,28.80
2012,08,04,16,35,28.80
2012,08,04,16,36,28.80
2012,08,04,16,37,28.80
2012,08,04,16,38,28.80
2012,08,04,16,39,28.80
2012,08,04,16,40,28.80
2012,08,04,16,41,28.90
2012,08,04,16,42,29.00
2012,08,04,16,43,29.10
2012,08,04,16,44,29.10
2012,08,04,16,45,29.20
2012,08,04,16,46,29.20
2012,08,04,16,47,29.30
2012,08,04,16,48,29.30
2012,08,04,16,49,29.30
2012,08,04,16,50,29.30
2012,08,04,16,51,29.40
2012,08,04,16,52,29.40
2012,08,04,16,53,29.40
2012,08,04,16,54,29.50
2012,08,04,16,55,29.50
2012,08,04,16,56,29.50
2012,08,04,16,57,29.50
2012,08,04,16,58,29.50
2012,08,04,16,59,29.60
2012,08,04,17,00,29.60
2012,08,04,17,01,29.70
2012,08,04,17,02,29.70
2012,08,04,17,03,29.80
2012,08,04,17,04,29.80
2012,08,04,17,05,29.80
2012,08,04,17,06,29.90
2012,08,04,17,07,29.90
2012,08,04,17,08,29.90
2012,08,04,17,09,29.90
2012,08,04,17,10,29.90
2012,08,04,17,11,29.90
2012,08,04,17,12,29.90
2012,08,04,17,13,29.90
2012,08,04,17,14,29.90
2012,08,04,17,15,29.90
2012,08,04,17,16,30.00
2012,08,04,17,17,30.00
2012,08,04,17,18,30.00
2012,08,04,17,19,30.00
2012,08,04,17,20,30.00
2012,08,04,17,21,30.00
2012,08,04,17,22,29.90
2012,08,04,17,23,29.90
2012,08,04,17,24,29.90
2012,08,04,17,25,29.80
2012,08,04,17,26,29.70
2012,08,04,17,27,29.60
2012,08,04,17,28,29.50
2012,08,04,17,29,29.40
2012,08,04,17,30,29.30
2012,08,04,17,31,29.20
2012,08,04,17,32,29.20
2012,08,04,17,33,29.10
2012,08,04,17,34,29.10
2012,08,04,17,35,29.10
2012,08,04,17,36,29.10
2012,08,04,17,37,29.10
2012,08,04,17,38,29.10
2012,08,04,17,39,29.10
2012,08,04,17,40,29.20
2012,08,04,17,41,29.20
2012,08,04,17,42,29.30
2012,08,04,17,43,29.30
2012,08,04,17,44,29.30
2012,08,04,17,45,29.30
2012,08,04,17,46,29.20
2012,08,04,17,47,29.20
2012,08,04,17,48,29.20
2012,08,04,17,49,29.10
2012,08,04,17,50,29.10
2012,08,04,17,51,29.00
2012,08,04,17,52,29.00
2012,08,04,17,53,29.00
2012,08,04,17,54,29.00
2012,08,04,17,55,29.00
2012,08,04,17,56,28.90
2012,08,04,17,57,28.90
2012,08,04,17,58,28.90
2012,08,04,17,59,28.90
2012,08,04,18,00,28.90
2012,08,04,18,01,28.90
2012,08,04,18,02,28.90
2012,08,04,18,03,28.90
2012,08,04,18,04,28.90
2012,08,04,18,05,28.90
2012,08,04,18,06,29.00
2012,08,04,18,07,29.00
2012,08,04,18,08,29.10
2012,08,04,18,09,29.10
2012,08,04,18,10,29.20
2012,08,04,18,11,29.20
2012,08,04,18,12,29.20
2012,08,04,18,13,29.20
2012,08,04,18,14,29.20
2012,08,04,18,15,29.20
2012,08,04,18,16,29.20
2012,08,04,18,17,29.20
2012,08,04,18,18,29.20
2012,08,04,18,19,29.20
2012,08,04,18,20,29.20
2012,08,04,18,21,29.20
2012,08,04,18,22,29.20
2012,08,04,18,23,29.20
2012,08,04,18,24,29.30
2012,08,04,18,25,29.30
2012,08,04,18,26,29.30
2012,08,04,18,27,29.40
2012,08,04,18,28,29.40
2012,08,04,18,29,29.50
2012,08,04,18,30,29.50
2012,08,04,18,31,29.60
2012,08,04,18,32,29.60
2012,08,04,18,33,29.70
2012,08,04,18,34,29.70
2012,08,04,18,35,29.70
2012,08,04,18,36,29.70
2012,08,04,18,37,29.80
2012,08,04,18,38,29.80
2012,08,04,18,39,29.80
2012,08,04,18,40,29.90
2012,08,04,18,41,29.90
2012,08,04,18,42,29.90
2012,08,04,18,43,29.90
2012,08,04,18,44,29.90
2012,08,04,18,45,29.90
2012,08,04,18,46,29.90
2012,08,04,18,47,29.90
2012,08,04,18,48,29.90
2012,08,04,18,49,29.90
2012,08,04,18,50,29.90
2012,08,04,18,51,30.00
2012,08,04,18,52,30.00
2012,08,04,18,53,30.00
2012,08,04,18,54,30.00
2012,08,04,18,55,30.00
2012,08,04,18,56,30.00
2012,08,04,18,57,30.00
2012,08,04,18,58,30.00
2012,08,04,18,59,30.00
2012,08,04,19,00,30.00
2012,08,04,19,01,30.00
2012,08,04,19,02,30.00
